| time (UTC) | temp F | wind direction | speed MPH | gust MPH | rain 1hr in | rain 24hr in | rain mn in | humidity % | barometer mb |
| 20260506044516 | 56 | 0 | 8.0 | 14.0 | 0.00 | 0.00 | 0.00 | 78 | 1008.8 |
| 20260506043516 | 56 | 0 | 9.0 | 12.0 | 0.00 | 0.00 | 0.00 | 78 | 1008.7 |
| 20260506042536 | 56 | 23 | 5.0 | 9.0 | 0.00 | 0.00 | 0.00 | 78 | 1008.8 |
| 20260506041536 | 56 | 0 | 7.0 | 11.0 | 0.00 | 0.00 | 0.00 | 78 | 1008.9 |
| 20260506040516 | 57 | 23 | 8.0 | 10.0 | 0.00 | 0.00 | 0.00 | 79 | 1008.6 |
| 20260506035516 | 57 | 338 | 8.0 | 13.0 | 0.00 | 0.00 | 0.00 | 79 | 1008.6 |
| 20260506034537 | 57 | 0 | 8.0 | 11.0 | 0.00 | 0.00 | 0.00 | 79 | 1008.6 |
| 20260506033516 | 57 | 0 | 8.0 | 13.0 | 0.00 | 0.00 | 0.00 | 79 | 1008.4 |
| 20260506032516 | 58 | 0 | 6.0 | 10.0 | 0.00 | 0.00 | 0.00 | 79 | 1008.3 |
| 20260506031516 | 58 | 0 | 9.0 | 13.0 | 0.00 | 0.00 | 0.00 | 79 | 1008.2 |
| 20260506030516 | 58 | 23 | 7.0 | 11.0 | 0.00 | 0.00 | 0.00 | 79 | 1007.8 |
| 20260506025536 | 59 | 0 | 9.0 | 11.0 | 0.00 | 0.00 | 0.00 | 80 | 1007.7 |
| 20260506024516 | 60 | 0 | 8.0 | 13.0 | 0.00 | 0.00 | 0.00 | 80 | 1007.2 |
| 20260506023536 | 60 | 23 | 8.0 | 13.0 | 0.00 | 0.00 | 0.00 | 80 | 1006.7 |
| 20260506022516 | 60 | 0 | 7.0 | 12.0 | 0.00 | 0.00 | 0.00 | 80 | 1006.5 |
| 20260506021516 | 61 | 338 | 6.0 | 9.0 | 0.00 | 0.00 | 0.00 | 80 | 1006.2 |
| 20260506020516 | 61 | 0 | 6.0 | 9.0 | 0.00 | 0.00 | 0.00 | 80 | 1006.2 |
| 20260506015516 | 62 | 315 | 7.0 | 10.0 | 0.00 | 0.00 | 0.00 | 81 | 1006.2 |
| 20260506014516 | 62 | 23 | 4.0 | 11.0 | 0.00 | 0.00 | 0.00 | 81 | 1005.7 |
| 20260506013536 | 62 | 338 | 8.0 | 13.0 | 0.00 | 0.00 | 0.00 | 80 | 1005.9 |
| 20260506012516 | 63 | 315 | 7.0 | 14.0 | 0.00 | 0.00 | 0.00 | 79 | 1005.4 |
| 20260506011516 | 64 | 0 | 9.0 | 12.0 | 0.00 | 0.00 | 0.00 | 79 | 1005.2 |
| 20260506010536 | 64 | 0 | 9.0 | 13.0 | 0.00 | 0.00 | 0.00 | 78 | 1005.0 |
| 20260506005516 | 66 | 0 | 12.0 | 19.0 | 0.00 | 0.00 | 0.00 | 78 | 1004.9 |
| 20260506004516 | 67 | 0 | 7.0 | 12.0 | 0.00 | 0.00 | 0.00 | 78 | 1004.6 |
| 20260506003516 | 68 | 338 | 5.0 | 7.0 | 0.00 | 0.00 | 0.00 | 77 | 1004.3 |
| 20260506002516 | 68 | 338 | 5.0 | 10.0 | 0.00 | 0.00 | 0.00 | 76 | 1004.4 |
| 20260506001515 | 69 | 315 | 7.0 | 20.0 | 0.00 | 0.00 | 0.00 | 76 | 1004.4 |
| 20260506000516 | 69 | 315 | 10.0 | 14.0 | 0.00 | 0.00 | 0.00 | 76 | 1004.8 |
| 20260505235515 | 69 | 338 | 7.0 | 11.0 | 0.00 | 0.00 | 0.00 | 75 | 1003.8 |
| 20260505234516 | 70 | 315 | 11.0 | 15.0 | 0.00 | 0.00 | 0.00 | 74 | 1004.5 |
| 20260505233516 | 71 | 338 | 7.0 | 11.0 | 0.00 | 0.00 | 0.00 | 74 | 1004.3 |
| 20260505232516 | 72 | 338 | 7.0 | 13.0 | 0.00 | 0.00 | 0.00 | 74 | 1004.2 |
| 20260505231515 | 73 | 315 | 12.0 | 18.0 | 0.00 | 0.00 | 0.00 | 73 | 1004.2 |
| 20260505230516 | 75 | 315 | 10.0 | 14.0 | 0.00 | 0.00 | 0.00 | 72 | 1003.8 |
| 20260505225515 | 76 | 315 | 7.0 | 11.0 | 0.00 | 0.00 | 0.00 | 71 | 1003.8 |
| 20260505224516 | 77 | 315 | 13.0 | 16.0 | 0.00 | 0.00 | 0.00 | 69 | 1003.6 |
| 20260505223515 | 77 | 315 | 7.0 | 10.0 | 0.00 | 0.00 | 0.00 | 67 | 1003.4 |
| 20260505222516 | 78 | 315 | 8.0 | 11.0 | 0.00 | 0.00 | 0.00 | 64 | 1003.1 |
| 20260505221515 | 79 | 293 | 9.0 | 14.0 | 0.00 | 0.00 | 0.00 | 60 | 1002.9 |
| 20260505220515 | 79 | 293 | 10.0 | 12.0 | 0.00 | 0.00 | 0.00 | 57 | 1002.9 |
| 20260505215515 | 80 | 270 | 11.0 | 13.0 | 0.00 | 0.00 | 0.00 | 56 | 1002.7 |
| 20260505214516 | 80 | 293 | 9.0 | 13.0 | 0.00 | 0.00 | 0.00 | 55 | 1002.6 |
| 20260505213515 | 81 | 293 | 9.0 | 12.0 | 0.00 | 0.00 | 0.00 | 53 | 1002.9 |
| 20260505212515 | 82 | 293 | 7.0 | 10.0 | 0.00 | 0.00 | 0.00 | 52 | 1003.1 |
| 20260505211515 | 83 | 315 | 12.0 | 20.0 | 0.00 | 0.00 | 0.00 | 52 | 1002.9 |
| 20260505210515 | 85 | 293 | 11.0 | 15.0 | 0.00 | 0.00 | 0.00 | 54 | 1002.9 |
| 20260505205515 | 86 | 0 | 9.0 | 14.0 | 0.00 | 0.00 | 0.00 | 55 | 1003.0 |
| 20260505204515 | 86 | 0 | 9.0 | 13.0 | 0.00 | 0.00 | 0.00 | 55 | 1003.1 |
| 20260505203557 | 85 | 0 | 8.0 | 10.0 | 0.00 | 0.00 | 0.00 | 62 | 1002.9 |
| 20260505202537 | 85 | 0 | 9.0 | 12.0 | 0.00 | 0.00 | 0.00 | 62 | 1003.1 |
| 20260505201515 | 84 | 0 | 10.0 | 12.0 | 0.00 | 0.00 | 0.00 | 63 | 1003.0 |
| 20260505200517 | 83 | 0 | 7.0 | 9.0 | 0.00 | 0.00 | 0.00 | 64 | 1003.0 |
| 20260505195517 | 83 | 0 | 9.0 | 12.0 | 0.00 | 0.00 | 0.00 | 64 | 1003.2 |
| 20260505194537 | 83 | 0 | 8.0 | 14.0 | 0.00 | 0.00 | 0.00 | 65 | 1003.2 |
| 20260505193517 | 83 | 0 | 12.0 | 21.0 | 0.00 | 0.00 | 0.00 | 64 | 1003.4 |
| 20260505192517 | 82 | 0 | 9.0 | 15.0 | 0.00 | 0.00 | 0.00 | 64 | 1003.3 |
| 20260505191517 | 82 | 0 | 7.0 | 16.0 | 0.00 | 0.00 | 0.00 | 64 | 1003.1 |
| 20260505190517 | 83 | 0 | 10.0 | 13.0 | 0.00 | 0.00 | 0.00 | 63 | 1002.9 |
| 20260505185517 | 83 | 0 | 6.0 | 10.0 | 0.00 | 0.00 | 0.00 | 63 | 1002.8 |
| 20260505184517 | 82 | 0 | 11.0 | 15.0 | 0.00 | 0.00 | 0.00 | 64 | 1002.8 |
| 20260505183537 | 81 | 0 | 9.0 | 13.0 | 0.00 | 0.00 | 0.00 | 67 | 1002.9 |
| 20260505182517 | 81 | 0 | 8.0 | 11.0 | 0.00 | 0.00 | 0.00 | 67 | 1003.1 |
| 20260505181517 | 81 | 0 | 8.0 | 12.0 | 0.00 | 0.00 | 0.00 | 68 | 1003.2 |
| 20260505180517 | 80 | 0 | 7.0 | 9.0 | 0.00 | 0.00 | 0.00 | 70 | 1003.1 |
| 20260505175517 | 79 | 0 | 12.0 | 20.0 | 0.00 | 0.00 | 0.00 | 71 | 1003.1 |
| 20260505174517 | 79 | 0 | 5.0 | 8.0 | 0.00 | 0.00 | 0.00 | 72 | 1003.0 |
| 20260505173517 | 79 | 0 | 10.0 | 14.0 | 0.00 | 0.00 | 0.00 | 73 | 1002.8 |
| 20260505172517 | 78 | 0 | 8.0 | 13.0 | 0.00 | 0.00 | 0.00 | 74 | 1002.8 |
| 20260505171517 | 78 | 0 | 9.0 | 18.0 | 0.00 | 0.00 | 0.00 | 74 | 1002.9 |
| 20260505170517 | 78 | 0 | 8.0 | 15.0 | 0.00 | 0.00 | 0.00 | 75 | 1002.5 |
| 20260505165537 | 77 | 0 | 10.0 | 15.0 | 0.00 | 0.00 | 0.00 | 75 | 1002.7 |
| 20260505164517 | 77 | 0 | 9.0 | 13.0 | 0.00 | 0.00 | 0.00 | 75 | 1002.9 |
| 20260505163537 | 77 | 0 | 8.0 | 11.0 | 0.00 | 0.00 | 0.00 | 76 | 1002.8 |
| 20260505162517 | 77 | 0 | 12.0 | 16.0 | 0.00 | 0.00 | 0.00 | 76 | 1002.9 |
| 20260505161520 | 76 | 0 | 10.0 | 14.0 | 0.00 | 0.00 | 0.00 | 76 | 1002.6 |
| 20260505160519 | 77 | 0 | 9.0 | 15.0 | 0.00 | 0.00 | 0.00 | 76 | 1002.4 |
| 20260505152516 | 76 | 0 | 13.0 | 20.0 | 0.00 | 0.00 | 0.00 | 76 | 1002.6 |
| 20260505151527 | 76 | 0 | 13.0 | 23.0 | 0.00 | 0.00 | 0.00 | 77 | 1002.5 |
| 20260505150517 | 76 | 0 | 12.0 | 19.0 | 0.00 | 0.00 | 0.00 | 78 | 1002.6 |
| 20260505140517 | 74 | 0 | 10.0 | 16.0 | 0.00 | 0.00 | 0.00 | 80 | 1002.0 |
| 20260505124516 | 72 | 0 | 8.0 | 14.0 | 0.00 | 0.00 | 0.00 | 82 | 1001.9 |
| 20260505123516 | 72 | 0 | 12.0 | 19.0 | 0.00 | 0.00 | 0.00 | 82 | 1001.9 |
| 20260505122516 | 72 | 0 | 11.0 | 18.0 | 0.00 | 0.00 | 0.00 | 82 | 1001.9 |
| 20260505121516 | 72 | 0 | 7.0 | 10.0 | 0.00 | 0.00 | 0.00 | 83 | 1001.7 |
| 20260505120516 | 72 | 0 | 7.0 | 13.0 | 0.00 | 0.00 | 0.00 | 82 | 1001.5 |
| 20260505115536 | 72 | 0 | 14.0 | 20.0 | 0.00 | 0.00 | 0.00 | 82 | 1001.3 |
| 20260505114516 | 72 | 0 | 13.0 | 18.0 | 0.00 | 0.00 | 0.00 | 82 | 1001.5 |
| 20260505113516 | 72 | 0 | 9.0 | 14.0 | 0.00 | 0.00 | 0.00 | 82 | 1001.5 |
| 20260505112516 | 72 | 0 | 8.0 | 12.0 | 0.00 | 0.00 | 0.00 | 81 | 1001.5 |
| 20260505111516 | 72 | 0 | 11.0 | 15.0 | 0.00 | 0.00 | 0.00 | 82 | 1001.6 |
| 20260505110516 | 72 | 0 | 12.0 | 19.0 | 0.00 | 0.00 | 0.00 | 82 | 1001.4 |
| 20260505101516 | 71 | 0 | 11.0 | 18.0 | 0.00 | 0.00 | 0.00 | 82 | 1001.5 |
| 20260505100536 | 71 | 0 | 9.0 | 13.0 | 0.00 | 0.00 | 0.00 | 82 | 1001.3 |
| 20260505095516 | 71 | 0 | 10.0 | 14.0 | 0.00 | 0.00 | 0.00 | 82 | 1001.3 |
| 20260505094516 | 71 | 0 | 8.0 | 11.0 | 0.00 | 0.00 | 0.00 | 82 | 1001.4 |
| 20260505093516 | 72 | 0 | 9.0 | 13.0 | 0.00 | 0.00 | 0.00 | 81 | 1001.5 |
| 20260505092516 | 72 | 0 | 9.0 | 14.0 | 0.00 | 0.00 | 0.00 | 81 | 1001.7 |
| 20260505091516 | 72 | 0 | 8.0 | 15.0 | 0.00 | 0.00 | 0.00 | 81 | 1001.8 |
| 20260505090515 | 72 | 0 | 8.0 | 12.0 | 0.00 | 0.00 | 0.00 | 80 | 1001.7 |
| 20260505085515 | 72 | 0 | 14.0 | 21.0 | 0.00 | 0.00 | 0.00 | 80 | 1001.7 |
| 20260505084516 | 72 | 0 | 9.0 | 14.0 | 0.00 | 0.00 | 0.00 | 80 | 1001.6 |
| 20260505083515 | 72 | 0 | 7.0 | 12.0 | 0.00 | 0.00 | 0.00 | 79 | 1001.6 |
| 20260505082515 | 72 | 0 | 9.0 | 12.0 | 0.00 | 0.00 | 0.00 | 79 | 1001.7 |
| 20260505081515 | 72 | 0 | 10.0 | 18.0 | 0.00 | 0.00 | 0.00 | 78 | 1001.8 |
| 20260505080515 | 72 | 0 | 12.0 | 19.0 | 0.00 | 0.00 | 0.00 | 78 | 1001.9 |
| 20260505075515 | 73 | 0 | 9.0 | 18.0 | 0.00 | 0.00 | 0.00 | 77 | 1002.0 |
| 20260505074515 | 73 | 0 | 7.0 | 12.0 | 0.00 | 0.00 | 0.00 | 77 | 1002.2 |
| 20260505073515 | 73 | 0 | 14.0 | 19.0 | 0.00 | 0.00 | 0.00 | 77 | 1002.2 |
| 20260505072515 | 73 | 0 | 10.0 | 14.0 | 0.00 | 0.00 | 0.00 | 76 | 1002.4 |
| 20260505071515 | 73 | 0 | 10.0 | 21.0 | 0.00 | 0.00 | 0.00 | 76 | 1002.6 |
| 20260505070616 | 73 | 0 | 13.0 | 20.0 | 0.00 | 0.00 | 0.00 | 76 | 1002.7 |
| 20260505065516 | 73 | 0 | 12.0 | 24.0 | 0.00 | 0.00 | 0.00 | 75 | 1002.8 |
| 20260505064515 | 73 | 0 | 8.0 | 11.0 | 0.00 | 0.00 | 0.00 | 75 | 1002.9 |
| 20260505063515 | 73 | 0 | 8.0 | 13.0 | 0.00 | 0.00 | 0.00 | 75 | 1003.0 |
| 20260505062515 | 73 | 0 | 12.0 | 20.0 | 0.00 | 0.00 | 0.00 | 74 | 1003.0 |
| 20260505061517 | 73 | 0 | 7.0 | 15.0 | 0.00 | 0.00 | 0.00 | 74 | 1003.1 |
| 20260505060515 | 73 | 0 | 7.0 | 14.0 | 0.00 | 0.00 | 0.00 | 74 | 1003.1 |
| 20260505055517 | 73 | 0 | 7.0 | 10.0 | 0.00 | 0.00 | 0.00 | 74 | 1003.1 |
| 20260505054517 | 73 | 0 | 7.0 | 11.0 | 0.00 | 0.00 | 0.00 | 74 | 1003.2 |
| 20260505053517 | 73 | 0 | 8.0 | 13.0 | 0.00 | 0.00 | 0.00 | 74 | 1003.3 |
| 20260505052517 | 73 | 0 | 7.0 | 11.0 | 0.00 | 0.00 | 0.00 | 74 | 1003.4 |
| 20260505051517 | 73 | 0 | 8.0 | 10.0 | 0.00 | 0.00 | 0.00 | 74 | 1003.6 |
| 20260505050517 | 73 | 0 | 8.0 | 12.0 | 0.00 | 0.00 | 0.00 | 74 | 1003.5 |